Flag for China Weather past 2 weeks in Kunming, Yunnan, China

Now
63 °F

Sprinkles. Passing clouds.


Feels Like: 63 °F
Forecast: 60 / 73 °F
Wind: 3 mph from West

Location: Kunming Airport

Current Time: Jul 22, 2014 at 10:31:22 PM

Latest Report: Jul 22, 2014 at 9:00 PM


Visibility: 5 mi

Pressure: 30.09 "Hg

Humidity: 100%

Dew point: 63 °F

Location of KunmingLocation

Historic Weather in Kunming — Graph

°F

Kunming temperature yesterday

Maximum temperature yesterday: 66 °F (at 3:00 PM)
Minimum temperature yesterday: 61 °F (at 12:00 AM)
Average temperature yesterday: 62 °F

Past Weeks' High & Low Weather Summary

 TemperatureHumidityPressure
High82 °F (Jul 10, 4:00 PM)100% (Jul 8, 5:00 AM)30.18 "Hg (Jul 8, 5:00 AM)
Low59 °F (Jul 13, 7:00 AM)42% (Jul 10, 4:00 PM)29.86 "Hg (Jul 8, 6:00 PM)
Average66 °F87%30.04 "Hg
* Reported Jul 7 9:00 PM — Jul 22 9:00 PM, Kunming, Weather by CustomWeather, © 2014

Note: Actual official high and low records may vary slightly from our data, if they occured in-between our weather recording intervals... More about our weather records

Advertising

Kunming weather history for previous 24 hours

 ConditionsComfort  
Time TempWeatherWind HumidityBarometerVisibility
9:00 PM
Jul 22
63 °FSprinkles. Passing clouds.3 mph100%30.09 "Hg5 mi
8:00 PM61 °FSprinkles. Mostly cloudy.3 mph100%30.09 "Hg4 mi
7:00 PM64 °FMostly cloudy.8 mph100%30.07 "Hg4 mi
6:00 PM66 °FPartly sunny.1 mph88%30.07 "HgN/A
5:00 PM66 °FBroken clouds.3 mph88%30.04 "HgN/A
4:00 PM66 °FSprinkles. More clouds than sun.3 mph88%30.07 "HgN/A
3:00 PM66 °FMore clouds than sun.8 mph88%30.07 "HgN/A
2:00 PM68 °FMore clouds than sun.8 mph83%30.09 "HgN/A
1:00 PM68 °FMore clouds than sun.3 mph78%30.12 "HgN/A
12:00 PM66 °FMore clouds than sun.6 mph83%30.12 "HgN/A
11:00 AM64 °FMore clouds than sun.6 mph100%30.12 "HgN/A
10:00 AM63 °FMore clouds than sun.6 mph100%30.12 "HgN/A
9:00 AM63 °FMore clouds than sun.6 mph100%30.12 "Hg4 mi
8:00 AM61 °FFog.6 mph100%30.09 "Hg2 mi
7:00 AM61 °FFog.3 mph100%30.09 "Hg2 mi
6:00 AM61 °FSprinkles. Fog.6 mph100%30.07 "Hg3 mi
5:00 AM61 °FMostly cloudy.6 mph100%30.07 "HgN/A
4:00 AM61 °FMostly cloudy.1 mph100%30.07 "HgN/A
3:00 AM61 °FMostly cloudy.3 mph100%30.09 "HgN/A
2:00 AM61 °FMostly cloudy.No wind100%30.09 "HgN/A
1:00 AM61 °FMostly cloudy.3 mph100%30.12 "HgN/A
12:00 AM61 °FLight rain. Mostly cloudy.6 mph100%30.12 "Hg4 mi
11:00 PM
Jul 21
61 °FLight rain. Mostly cloudy.8 mph100%30.12 "Hg3 mi
10:00 PM61 °FSprinkles. Mostly cloudy.10 mph100%30.09 "HgN/A
Weather by CustomWeather, © 2014

See weather overviewHow to use our weather pages